Doylestown, PA

1:45 AM EDT on October 18, 2017 (GMT -0400)
Doylestown

Weather History for KDYL - March, 2013

Change the Weather History Date:

Monday, March 25, 2013

  Actual Average (KTTN) Record (KTTN)
Temperature  
Mean Temperature 34 °F -  
Max Temperature 36 °F 52 °F 78 °F (1963)
Min Temperature 32 °F 34 °F 16 °F (1896)
Degree Days  
Heating Degree Days 31    
Moisture  
Dew Point 31 °F    
Average Humidity 89    
Maximum Humidity 100    
Minimum Humidity 62    
Precipitation  
Precipitation 0.36 in - - ()
Sea Level Pressure  
Sea Level Pressure 29.55 in    
Wind  
Wind Speed 5 mph (North)    
Max Wind Speed 14 mph    
Max Gust Speed 24 mph    
Visibility 7 miles    
Events Fog , Rain , Snow    
Averages and records for this station are not official NWS values.
T = Trace of Precipitation, MM = Missing Value Source: NWS Daily Summary

Daily Weather History Graph

Daily Weather History Graph

Search for Another Location

Airport or City:

Trip Planner

Search our weather history database for the weather conditions in past years. The results will help you decide how hot, cold, wet, or windy it might be!

Date:

Astronomy

Mar. 25, 2013 Rise Set
Actual Time 6:55 AM EDT 7:17 PM EDT
Civil Twilight 6:28 AM EDT 7:45 PM EDT
Nautical Twilight 5:56 AM EDT 8:17 PM EDT
Astronomical Twilight 5:23 AM EDT 8:50 PM EDT
Moon 5:46 PM EDT (3/25) 5:37 AM EDT (3/25)
Length of Visible Light 13h 17m
Length of Day
12h 22m
Waxing Gibbous, 96% of the Moon is Illuminated
Mar 25
Waxing Gibbous
Mar 27
Full
Apr 3
Last Quarter
Apr 10
New
Apr 18
First Quarter

Hourly Weather History & Observations

Time (EDT) Temp. Windchill Dew Point Humidity Pressure Visibility Wind Dir Wind Speed Gust Speed Precip Events Conditions
12:54 AM 35.1 °F - 25.0 °F 67% 29.70 in 10.0 mi Calm Calm - N/A   Overcast
1:54 AM 36.0 °F - 24.1 °F 62% 29.67 in 10.0 mi Calm Calm - N/A   Overcast
2:54 AM 35.1 °F 30.1 °F 24.1 °F 64% 29.63 in 10.0 mi NE 5.8 mph - N/A   Overcast
3:54 AM 35.1 °F - 24.1 °F 64% 29.60 in 10.0 mi Calm Calm - N/A   Overcast
4:54 AM 36.0 °F 32.1 °F 24.1 °F 62% 29.58 in 10.0 mi Variable 4.6 mph - N/A   Overcast
5:54 AM 36.0 °F 30.3 °F 25.0 °F 64% 29.57 in 10.0 mi NE 6.9 mph - N/A   Overcast
6:54 AM 36.0 °F 33.3 °F 26.1 °F 67% 29.59 in 10.0 mi NNE 3.5 mph - N/A   Overcast
7:19 AM 33.8 °F - 26.6 °F 75% 29.58 in 3.0 mi Calm Calm - 0.00 in Snow Light Snow
7:28 AM 33.8 °F - 28.4 °F 81% 29.59 in 1.8 mi Calm Calm - 0.00 in Snow Light Snow
7:34 AM 33.8 °F 30.8 °F 30.2 °F 87% 29.59 in 0.8 mi NE 3.5 mph - 0.00 in Snow Light Snow
7:46 AM 32.0 °F 26.4 °F 30.2 °F 93% 29.58 in 0.5 mi NNE 5.8 mph - 0.00 in Fog , Snow Snow
7:54 AM 32.0 °F 28.7 °F 30.9 °F 96% 29.60 in 0.8 mi NE 3.5 mph - 0.00 in Snow Light Snow
8:49 AM 32.0 °F 24.8 °F 30.2 °F 93% 29.57 in 0.5 mi NE 8.1 mph - 0.00 in Fog , Snow Snow
8:54 AM 32.0 °F 26.4 °F 30.9 °F 96% 29.59 in 0.5 mi NE 5.8 mph - 0.00 in Fog , Snow Snow
9:54 AM 32.0 °F 24.8 °F 30.9 °F 96% 29.57 in 1.5 mi NNE 8.1 mph - 0.00 in Snow Light Snow
10:54 AM 32.0 °F 24.2 °F 30.9 °F 96% 29.56 in 1.2 mi NNE 9.2 mph - 0.00 in Snow Light Snow
11:08 AM 32.0 °F 23.0 °F 30.2 °F 93% 29.53 in 2.0 mi NE 11.5 mph 18.4 mph 0.00 in Snow Light Snow
11:54 AM 33.1 °F 23.9 °F 30.9 °F 92% 29.54 in 2.0 mi NE 12.7 mph 24.2 mph 0.03 in Snow Light Snow
12:04 PM 33.8 °F 25.3 °F 30.2 °F 87% 29.51 in 1.2 mi NE 11.5 mph 21.9 mph 0.01 in Snow Light Snow
12:54 PM 33.1 °F 23.4 °F 30.9 °F 92% 29.51 in 3.0 mi NNE 13.8 mph 23.0 mph 0.09 in Snow Light Snow
1:37 PM 33.8 °F 25.8 °F 30.2 °F 87% 29.48 in 5.0 mi NE 10.4 mph 21.9 mph 0.08 in Snow Light Snow
1:54 PM 34.0 °F 26.0 °F 30.9 °F 89% 29.49 in 5.0 mi NE 10.4 mph 20.7 mph 0.10 in Snow Light Snow
2:34 PM 33.8 °F 27.0 °F 32.0 °F 93% 29.47 in 6.0 mi NE 8.1 mph - 0.04 in Snow Light Snow
2:42 PM 35.6 °F 29.2 °F 32.0 °F 87% 29.47 in 8.0 mi NNE 8.1 mph - 0.05 in Snow Light Snow
2:54 PM 35.1 °F 28.6 °F 32.0 °F 89% 29.49 in 9.0 mi NE 8.1 mph - 0.06 in Snow Light Snow
3:54 PM 35.1 °F 27.4 °F 30.9 °F 85% 29.50 in 7.0 mi NNE 10.4 mph - 0.01 in Snow Light Snow
4:05 PM 35.6 °F 29.2 °F 32.0 °F 87% 29.48 in 6.0 mi NNE 8.1 mph - 0.01 in Snow Light Snow
4:31 PM 35.6 °F 31.7 °F 33.8 °F 93% 29.48 in 9.0 mi North 4.6 mph - 0.01 in   Overcast
4:43 PM 35.6 °F 29.9 °F 33.8 °F 93% 29.48 in 8.0 mi North 6.9 mph - 0.02 in Snow Light Snow
4:52 PM 35.6 °F 29.9 °F 33.8 °F 93% 29.48 in 7.0 mi North 6.9 mph - 0.02 in Snow Light Snow
4:54 PM 35.1 °F 28.6 °F 32.0 °F 89% 29.50 in 7.0 mi North 8.1 mph - 0.02 in Snow Light Snow
4:59 PM 33.8 °F 29.6 °F 32.0 °F 93% 29.48 in 7.0 mi North 4.6 mph - 0.00 in Snow Light Snow
5:09 PM 35.6 °F 32.8 °F 33.8 °F 93% 29.48 in 9.0 mi North 3.5 mph - 0.00 in   Overcast
5:54 PM 34.0 °F 29.8 °F 33.1 °F 96% 29.52 in 10.0 mi NW 4.6 mph - 0.01 in   Overcast
6:10 PM 33.8 °F 30.8 °F 33.8 °F 100% 29.50 in 10.0 mi NW 3.5 mph - 0.00 in   Overcast
6:46 PM 33.8 °F 27.7 °F 33.8 °F 100% 29.51 in 10.0 mi NW 6.9 mph - 0.00 in Rain Light Rain
6:54 PM 34.0 °F 28.0 °F 33.1 °F 96% 29.54 in 10.0 mi NW 6.9 mph - 0.00 in Rain Light Rain
7:13 PM 33.8 °F 28.6 °F 33.8 °F 100% 29.53 in 10.0 mi NW 5.8 mph - 0.01 in   Overcast
7:54 PM 34.0 °F 28.8 °F 33.1 °F 96% 29.57 in 10.0 mi NW 5.8 mph - 0.01 in   Overcast
8:45 PM 33.8 °F 28.6 °F 33.8 °F 100% 29.57 in 10.0 mi NW 5.8 mph - 0.01 in   Overcast
8:54 PM 34.0 °F 28.0 °F 33.1 °F 96% 29.60 in 10.0 mi NW 6.9 mph - 0.01 in   Overcast
9:50 PM 33.8 °F 28.6 °F 33.8 °F 100% 29.59 in 10.0 mi NW 5.8 mph - 0.01 in   Overcast
9:54 PM 34.0 °F 28.8 °F 33.1 °F 96% 29.62 in 10.0 mi NW 5.8 mph - 0.01 in   Overcast
10:39 PM 33.8 °F 28.6 °F 33.8 °F 100% 29.60 in 10.0 mi NW 5.8 mph - 0.01 in Rain Light Rain
10:49 PM 33.8 °F 27.7 °F 33.8 °F 100% 29.61 in 10.0 mi NW 6.9 mph - 0.01 in Rain Light Rain
10:54 PM 34.0 °F 28.8 °F 33.1 °F 96% 29.63 in 10.0 mi NNW 5.8 mph - 0.01 in Rain Light Rain
11:18 PM 33.8 °F 29.6 °F 33.8 °F 100% 29.61 in 10.0 mi NNW 4.6 mph - 0.00 in Rain Light Rain
11:37 PM 33.8 °F 28.6 °F 33.8 °F 100% 29.61 in 10.0 mi NW 5.8 mph - 0.00 in Rain Light Rain
11:54 PM 34.0 °F 29.8 °F 33.1 °F 96% 29.63 in 10.0 mi NW 4.6 mph - 0.00 in   Overcast